Location: Koszewko
(53.2876°N, 14.9061°E)
Time: 00:01:52
(UTC+00:00)

BREEZE-M DEB (TANK) - Pass Details

Date: 03 March 2021
Orbit: 308 x 15403 km, 49.5° (Epoch: 11 April)

Event Time Altitude Azimuth Distance (km) Brightness Sun altitude
Rises 19:44:57 0° 271° (W) 2,279 6.4 -27.3°
Reaches altitude 10° 19:46:20 10° 263° (W) 1,647 5.4 -27.4°
Enters shadow 19:48:11 34° 235° (SW) 1,046 3.8 -27.7°
